Time,TemperatureF,DewpointF,PressureIn,WindDirection,WindDirectionDegrees,WindSpeedMPH,WindSpeedGustMPH,Humidity,HourlyPrecipIn,Conditions,Clouds,dailyrainin,SoftwareType,DateUTC
2013-02-23 00:01:00,50.6,39.6,30.17,South,180,0.4,7.4,66,0.00,,,0.00,WUHU216HW,2013-02-23 08:01:00,
2013-02-23 00:06:00,50.4,39.1,30.16,South,180,1.1,7.4,65,0.00,,,0.00,WUHU216HW,2013-02-23 08:06:00,
2013-02-23 00:11:00,50.0,39.1,30.16,ENE,68,1.1,4.7,66,0.00,,,0.00,WUHU216HW,2013-02-23 08:11:00,
2013-02-23 00:16:00,50.0,39.1,30.17,SE,135,0.0,3.8,66,0.00,,,0.00,WUHU216HW,2013-02-23 08:16:00,
2013-02-23 00:21:00,49.9,39.3,30.17,NNE,23,3.4,3.8,67,0.00,,,0.00,WUHU216HW,2013-02-23 08:21:00,
2013-02-23 00:26:00,49.5,39.0,30.16,SSE,158,2.9,3.4,67,0.00,,,0.00,WUHU216HW,2013-02-23 08:26:00,
2013-02-23 00:31:00,49.3,38.8,30.16,SSE,158,3.4,3.4,67,0.00,,,0.00,WUHU216HW,2013-02-23 08:31:00,
2013-02-23 00:36:00,49.1,39.4,30.15,West,270,1.1,4.7,69,0.00,,,0.00,WUHU216HW,2013-02-23 08:36:00,
2013-02-23 00:41:00,49.1,39.4,30.15,East,90,1.8,4.7,69,0.00,,,0.00,WUHU216HW,2013-02-23 08:41:00,
2013-02-23 00:46:00,48.8,39.1,30.14,SSE,158,0.0,3.6,69,0.00,,,0.00,WUHU216HW,2013-02-23 08:46:00,
2013-02-23 00:51:00,48.6,38.9,30.14,SE,135,0.9,4.3,69,0.00,,,0.00,WUHU216HW,2013-02-23 08:51:00,
2013-02-23 00:56:00,48.6,39.6,30.14,SE,135,1.1,6.5,71,0.00,,,0.00,WUHU216HW,2013-02-23 08:56:00,
2013-02-23 01:01:00,48.4,39.8,30.14,SSE,158,4.0,6.5,72,0.00,,,0.00,WUHU216HW,2013-02-23 09:01:00,
2013-02-23 01:06:00,48.2,39.9,30.14,SW,225,6.9,6.9,73,0.00,,,0.00,WUHU216HW,2013-02-23 09:06:00,
2013-02-23 01:11:00,48.2,40.2,30.14,SW,225,2.0,6.9,74,0.00,,,0.00,WUHU216HW,2013-02-23 09:11:00,
2013-02-23 01:16:00,48.2,40.6,30.14,SE,135,4.7,6.9,75,0.00,,,0.00,WUHU216HW,2013-02-23 09:16:00,
2013-02-23 01:21:00,48.2,40.2,30.15,SE,135,1.1,4.7,74,0.00,,,0.00,WUHU216HW,2013-02-23 09:21:00,
2013-02-23 01:26:00,48.1,40.1,30.15,South,180,1.8,4.7,74,0.00,,,0.00,WUHU216HW,2013-02-23 09:26:00,
2013-02-23 01:31:00,47.9,40.2,30.15,SSE,158,1.8,3.4,75,0.00,,,0.00,WUHU216HW,2013-02-23 09:31:00,
2013-02-23 01:36:00,47.9,40.0,30.14,ESE,113,3.4,3.4,74,0.00,,,0.00,WUHU216HW,2013-02-23 09:36:00,
2013-02-23 01:41:00,47.9,40.2,30.14,North,0,1.1,3.4,75,0.00,,,0.00,WUHU216HW,2013-02-23 09:41:00,
2013-02-23 01:46:00,47.9,40.0,30.14,East,90,0.4,3.4,74,0.00,,,0.00,WUHU216HW,2013-02-23 09:46:00,
2013-02-23 01:51:00,47.7,40.4,30.14,South,180,2.2,2.5,76,0.00,,,0.00,WUHU216HW,2013-02-23 09:51:00,
2013-02-23 01:56:00,47.7,40.4,30.14,West,270,2.0,3.4,76,0.00,,,0.00,WUHU216HW,2013-02-23 09:56:00,
2013-02-23 02:01:00,47.7,40.4,30.14,SE,135,0.4,3.4,76,0.00,,,0.00,WUHU216HW,2013-02-23 10:01:00,
2013-02-23 02:06:00,47.7,40.8,30.14,SSE,158,1.1,4.5,77,0.00,,,0.00,WUHU216HW,2013-02-23 10:06:00,
2013-02-23 02:11:00,47.5,40.6,30.14,SSE,158,1.1,4.7,77,0.00,,,0.00,WUHU216HW,2013-02-23 10:11:00,
2013-02-23 02:16:00,47.5,41.0,30.14,SE,135,6.3,6.3,78,0.00,,,0.00,WUHU216HW,2013-02-23 10:16:00,
2013-02-23 02:21:00,47.3,40.8,30.13,SSE,158,2.7,6.3,78,0.00,,,0.00,WUHU216HW,2013-02-23 10:21:00,
2013-02-23 02:26:00,47.2,40.7,30.13,SSE,158,2.0,6.3,78,0.00,,,0.00,WUHU216HW,2013-02-23 10:26:00,
2013-02-23 02:31:00,47.2,40.7,30.12,SSE,158,3.1,6.0,78,0.00,,,0.00,WUHU216HW,2013-02-23 10:31:00,
2013-02-23 02:36:00,47.2,41.3,30.13,SE,135,4.0,5.6,80,0.00,,,0.00,WUHU216HW,2013-02-23 10:36:00,
2013-02-23 02:41:00,46.8,40.0,30.14,ESE,113,1.1,4.7,77,0.00,,,0.00,WUHU216HW,2013-02-23 10:41:00,
2013-02-23 02:46:00,46.8,40.3,30.14,East,90,0.7,4.0,78,0.00,,,0.00,WUHU216HW,2013-02-23 10:46:00,
2013-02-23 02:51:00,46.6,40.5,30.14,NW,315,0.7,3.6,79,0.00,,,0.00,WUHU216HW,2013-02-23 10:51:00,
2013-02-23 02:56:00,46.6,40.5,30.14,East,90,1.1,4.0,79,0.00,,,0.00,WUHU216HW,2013-02-23 10:56:00,
2013-02-23 03:01:00,46.6,40.1,30.14,ESE,113,0.4,4.0,78,0.00,,,0.00,WUHU216HW,2013-02-23 11:01:00,
2013-02-23 03:06:00,46.6,41.1,30.14,SSE,158,0.4,3.6,81,0.00,,,0.00,WUHU216HW,2013-02-23 11:06:00,
2013-02-23 03:11:00,46.6,40.9,30.13,WSW,248,0.9,4.0,80,0.00,,,0.00,WUHU216HW,2013-02-23 11:11:00,
2013-02-23 03:16:00,46.6,40.9,30.13,South,180,1.8,4.0,80,0.00,,,0.00,WUHU216HW,2013-02-23 11:16:00,
2013-02-23 03:21:00,46.4,40.7,30.13,East,90,2.5,4.0,80,0.00,,,0.00,WUHU216HW,2013-02-23 11:21:00,
2013-02-23 03:26:00,46.4,40.3,30.14,ENE,68,1.6,4.0,79,0.00,,,0.00,WUHU216HW,2013-02-23 11:26:00,
2013-02-23 03:31:00,46.4,40.3,30.14,ESE,113,1.6,4.0,79,0.00,,,0.00,WUHU216HW,2013-02-23 11:31:00,
2013-02-23 03:36:00,46.3,40.1,30.14,SSE,158,1.3,4.5,79,0.00,,,0.00,WUHU216HW,2013-02-23 11:36:00,
2013-02-23 03:41:00,46.1,39.6,30.14,South,180,1.8,4.5,78,0.00,,,0.00,WUHU216HW,2013-02-23 11:41:00,
2013-02-23 03:46:00,45.7,39.2,30.14,ESE,113,1.6,2.9,78,0.00,,,0.00,WUHU216HW,2013-02-23 11:46:00,
2013-02-23 03:51:00,45.7,39.6,30.14,SSE,158,0.0,3.4,79,0.00,,,0.00,WUHU216HW,2013-02-23 11:51:00,
2013-02-23 03:56:00,45.7,40.0,30.14,SSW,203,0.9,3.6,80,0.00,,,0.00,WUHU216HW,2013-02-23 11:56:00,
2013-02-23 04:01:00,45.5,39.4,30.14,SW,225,1.3,4.0,79,0.00,,,0.00,WUHU216HW,2013-02-23 12:01:00,
2013-02-23 04:06:00,45.4,39.2,30.14,East,90,0.0,4.0,79,0.00,,,0.00,WUHU216HW,2013-02-23 12:06:00,
2013-02-23 04:11:00,45.4,39.2,30.14,SE,135,0.2,2.7,79,0.00,,,0.00,WUHU216HW,2013-02-23 12:11:00,
2013-02-23 04:16:00,45.2,39.4,30.13,SE,135,0.4,2.2,80,0.00,,,0.00,WUHU216HW,2013-02-23 12:16:00,
2013-02-23 04:21:00,45.0,39.2,30.13,SSE,158,1.1,2.2,80,0.00,,,0.00,WUHU216HW,2013-02-23 12:21:00,
2013-02-23 04:26:00,45.0,39.2,30.13,SE,135,0.7,3.8,80,0.00,,,0.00,WUHU216HW,2013-02-23 12:26:00,
2013-02-23 04:31:00,44.8,39.3,30.13,West,270,2.7,3.8,81,0.00,,,0.00,WUHU216HW,2013-02-23 12:31:00,
2013-02-23 04:36:00,44.6,39.2,30.13,NNE,23,0.7,4.0,81,0.00,,,0.00,WUHU216HW,2013-02-23 12:36:00,
2013-02-23 04:41:00,44.6,39.2,30.13,South,180,0.7,4.0,81,0.00,,,0.00,WUHU216HW,2013-02-23 12:41:00,
2013-02-23 04:46:00,44.5,39.0,30.13,SE,135,0.7,2.5,81,0.00,,,0.00,WUHU216HW,2013-02-23 12:46:00,
2013-02-23 04:51:00,44.5,39.0,30.13,East,90,0.0,2.5,81,0.00,,,0.00,WUHU216HW,2013-02-23 12:51:00,
2013-02-23 04:56:00,44.3,39.2,30.14,SSE,158,0.4,2.0,82,0.00,,,0.00,WUHU216HW,2013-02-23 12:56:00,
2013-02-23 05:01:00,44.1,38.6,30.14,SE,135,0.0,2.0,81,0.00,,,0.00,WUHU216HW,2013-02-23 13:01:00,
2013-02-23 05:06:00,43.9,38.8,30.14,SSW,203,0.2,1.6,82,0.00,,,0.00,WUHU216HW,2013-02-23 13:06:00,
2013-02-23 05:11:00,43.9,39.1,30.14,SSE,158,0.7,1.6,83,0.00,,,0.00,WUHU216HW,2013-02-23 13:11:00,
2013-02-23 05:16:00,43.9,39.1,30.14,SSW,203,0.4,1.6,83,0.00,,,0.00,WUHU216HW,2013-02-23 13:16:00,
2013-02-23 05:21:00,43.7,38.6,30.14,South,180,0.4,1.6,82,0.00,,,0.00,WUHU216HW,2013-02-23 13:21:00,
2013-02-23 05:26:00,43.6,38.7,30.14,South,180,0.0,1.6,83,0.00,,,0.00,WUHU216HW,2013-02-23 13:26:00,
2013-02-23 05:31:00,43.6,38.4,30.14,SSE,158,0.2,2.2,82,0.00,,,0.00,WUHU216HW,2013-02-23 13:31:00,
2013-02-23 05:36:00,43.4,38.3,30.14,SE,135,0.0,2.2,82,0.00,,,0.00,WUHU216HW,2013-02-23 13:36:00,
2013-02-23 05:41:00,43.2,38.1,30.14,SSW,203,0.0,1.8,82,0.00,,,0.00,WUHU216HW,2013-02-23 13:41:00,
2013-02-23 05:46:00,43.0,37.9,30.15,SSE,158,0.0,1.3,82,0.00,,,0.00,WUHU216HW,2013-02-23 13:46:00,
2013-02-23 05:51:00,42.8,37.7,30.15,SE,135,0.4,2.2,82,0.00,,,0.00,WUHU216HW,2013-02-23 13:51:00,
2013-02-23 05:56:00,42.7,37.5,30.15,SSE,158,0.4,2.2,82,0.00,,,0.00,WUHU216HW,2013-02-23 13:56:00,
2013-02-23 06:01:00,42.7,37.5,30.16,SSE,158,0.4,1.1,82,0.00,,,0.00,WUHU216HW,2013-02-23 14:01:00,
2013-02-23 06:06:00,42.5,37.6,30.16,SSE,158,0.0,1.3,83,0.00,,,0.00,WUHU216HW,2013-02-23 14:06:00,
2013-02-23 06:11:00,42.5,37.6,30.16,SSE,158,0.9,1.3,83,0.00,,,0.00,WUHU216HW,2013-02-23 14:11:00,
2013-02-23 06:16:00,42.5,37.6,30.16,SSE,158,0.0,1.8,83,0.00,,,0.00,WUHU216HW,2013-02-23 14:16:00,
2013-02-23 06:21:00,42.3,37.4,30.17,ESE,113,0.0,1.8,83,0.00,,,0.00,WUHU216HW,2013-02-23 14:21:00,
2013-02-23 06:26:00,42.1,37.3,30.17,SE,135,0.7,0.7,83,0.00,,,0.00,WUHU216HW,2013-02-23 14:26:00,
2013-02-23 06:31:00,41.9,37.5,30.17,SSE,158,0.0,0.7,84,0.00,,,0.00,WUHU216HW,2013-02-23 14:31:00,
2013-02-23 06:36:00,41.8,37.3,30.17,SE,135,0.0,0.2,84,0.00,,,0.00,WUHU216HW,2013-02-23 14:36:00,
2013-02-23 06:41:00,41.6,36.5,30.17,SE,135,0.0,0.0,82,0.00,,,0.00,WUHU216HW,2013-02-23 14:41:00,
2013-02-23 06:46:00,41.4,36.5,30.18,South,180,0.0,0.0,83,0.00,,,0.00,WUHU216HW,2013-02-23 14:46:00,
2013-02-23 06:51:00,41.2,36.4,30.18,South,180,0.0,0.0,83,0.00,,,0.00,WUHU216HW,2013-02-23 14:51:00,
2013-02-23 06:56:00,41.0,36.2,30.18,South,180,0.0,0.0,83,0.00,,,0.00,WUHU216HW,2013-02-23 14:56:00,
2013-02-23 07:01:00,41.0,36.2,30.18,South,180,0.0,0.0,83,0.00,,,0.00,WUHU216HW,2013-02-23 15:01:00,
2013-02-23 07:06:00,41.0,36.2,30.18,NW,315,0.0,0.0,83,0.00,,,0.00,WUHU216HW,2013-02-23 15:06:00,
2013-02-23 07:11:00,40.9,36.4,30.19,SE,135,0.0,0.0,84,0.00,,,0.00,WUHU216HW,2013-02-23 15:11:00,
2013-02-23 07:16:00,40.9,36.4,30.19,North,0,0.0,0.0,84,0.00,,,0.00,WUHU216HW,2013-02-23 15:16:00,
2013-02-23 07:21:00,41.0,36.6,30.20,North,0,0.0,0.0,84,0.00,,,0.00,WUHU216HW,2013-02-23 15:21:00,
2013-02-23 07:26:00,41.0,36.6,30.20,NNW,338,0.0,0.0,84,0.00,,,0.00,WUHU216HW,2013-02-23 15:26:00,
2013-02-23 07:31:00,41.0,36.6,30.20,NNW,338,0.0,0.0,84,0.00,,,0.00,WUHU216HW,2013-02-23 15:31:00,
2013-02-23 07:36:00,40.9,36.4,30.20,SW,225,0.0,0.0,84,0.00,,,0.00,WUHU216HW,2013-02-23 15:36:00,
2013-02-23 07:41:00,41.0,36.6,30.20,SW,225,0.0,0.0,84,0.00,,,0.00,WUHU216HW,2013-02-23 15:41:00,
2013-02-23 07:46:00,41.2,36.7,30.21,WNW,293,0.0,0.4,84,0.00,,,0.00,WUHU216HW,2013-02-23 15:46:00,
2013-02-23 07:51:00,41.4,36.9,30.21,SW,225,0.0,0.4,84,0.00,,,0.00,WUHU216HW,2013-02-23 15:51:00,
2013-02-23 07:56:00,41.9,38.0,30.21,SW,225,0.0,0.9,86,0.00,,,0.00,WUHU216HW,2013-02-23 15:56:00,
2013-02-23 08:01:00,42.3,38.1,30.21,North,0,0.9,0.9,85,0.00,,,0.00,WUHU216HW,2013-02-23 16:01:00,
2013-02-23 08:06:00,42.8,38.9,30.22,North,0,0.9,1.8,86,0.00,,,0.00,WUHU216HW,2013-02-23 16:06:00,
2013-02-23 08:11:00,43.4,39.4,30.22,NNE,23,0.9,2.2,86,0.00,,,0.00,WUHU216HW,2013-02-23 16:11:00,
2013-02-23 08:16:00,43.9,40.0,30.22,NNE,23,0.0,2.2,86,0.00,,,0.00,WUHU216HW,2013-02-23 16:16:00,
2013-02-23 08:21:00,44.8,40.6,30.23,NE,45,0.2,1.1,85,0.00,,,0.00,WUHU216HW,2013-02-23 16:21:00,
2013-02-23 08:26:00,45.4,41.1,30.23,NNE,23,0.2,2.2,85,0.00,,,0.00,WUHU216HW,2013-02-23 16:26:00,
2013-02-23 08:31:00,45.7,41.2,30.23,ENE,68,1.8,2.2,84,0.00,,,0.00,WUHU216HW,2013-02-23 16:31:00,
2013-02-23 08:36:00,45.9,41.0,30.24,NNE,23,1.3,2.2,83,0.00,,,0.00,WUHU216HW,2013-02-23 16:36:00,
2013-02-23 08:41:00,46.1,41.2,30.24,NNE,23,0.7,2.2,83,0.00,,,0.00,WUHU216HW,2013-02-23 16:41:00,
2013-02-23 08:46:00,46.4,41.6,30.24,NNE,23,3.4,3.4,83,0.00,,,0.00,WUHU216HW,2013-02-23 16:46:00,
2013-02-23 08:51:00,46.8,42.0,30.24,NNE,23,1.3,3.4,83,0.00,,,0.00,WUHU216HW,2013-02-23 16:51:00,
2013-02-23 08:56:00,47.3,42.5,30.24,NNW,338,1.1,3.4,83,0.00,,,0.00,WUHU216HW,2013-02-23 16:56:00,
2013-02-23 09:01:00,47.5,42.3,30.24,NNE,23,1.8,2.0,82,0.00,,,0.00,WUHU216HW,2013-02-23 17:01:00,
2013-02-23 09:06:00,47.3,41.8,30.24,North,0,1.8,3.4,81,0.00,,,0.00,WUHU216HW,2013-02-23 17:06:00,
2013-02-23 09:11:00,47.3,41.8,30.24,NNE,23,3.6,3.6,81,0.00,,,0.00,WUHU216HW,2013-02-23 17:11:00,
2013-02-23 09:16:00,47.7,42.1,30.24,NNE,23,2.5,3.6,81,0.00,,,0.00,WUHU216HW,2013-02-23 17:16:00,
2013-02-23 09:21:00,48.2,42.7,30.24,NNW,338,1.8,4.0,81,0.00,,,0.00,WUHU216HW,2013-02-23 17:21:00,
2013-02-23 09:26:00,48.8,43.5,30.24,NNE,23,2.5,4.0,82,0.00,,,0.00,WUHU216HW,2013-02-23 17:26:00,
2013-02-23 09:31:00,49.1,43.5,30.24,NNE,23,1.1,3.8,81,0.00,,,0.00,WUHU216HW,2013-02-23 17:31:00,
2013-02-23 09:36:00,49.5,43.2,30.24,North,0,3.1,4.0,79,0.00,,,0.00,WUHU216HW,2013-02-23 17:36:00,
2013-02-23 09:41:00,50.0,43.4,30.24,NNW,338,1.3,5.8,78,0.00,,,0.00,WUHU216HW,2013-02-23 17:41:00,
2013-02-23 09:46:00,50.4,43.1,30.24,North,0,2.7,5.8,76,0.00,,,0.00,WUHU216HW,2013-02-23 17:46:00,
2013-02-23 09:51:00,50.6,41.6,30.24,NNE,23,4.9,5.6,71,0.00,,,0.00,WUHU216HW,2013-02-23 17:51:00,
2013-02-23 09:56:00,50.8,40.6,30.24,NNW,338,5.8,6.9,68,0.00,,,0.00,WUHU216HW,2013-02-23 17:56:00,
2013-02-23 10:01:00,50.6,39.6,30.24,North,0,2.5,8.5,66,0.00,,,0.00,WUHU216HW,2013-02-23 18:01:00,
2013-02-23 10:06:00,50.9,39.5,30.24,NW,315,2.2,8.5,65,0.00,,,0.00,WUHU216HW,2013-02-23 18:06:00,
2013-02-23 10:11:00,51.3,39.5,30.24,NNE,23,3.4,6.7,64,0.00,,,0.00,WUHU216HW,2013-02-23 18:11:00,
2013-02-23 10:16:00,51.5,39.2,30.24,NNW,338,4.0,6.7,63,0.00,,,0.00,WUHU216HW,2013-02-23 18:16:00,
2013-02-23 10:21:00,51.7,38.6,30.24,East,90,4.7,5.8,61,0.00,,,0.00,WUHU216HW,2013-02-23 18:21:00,
2013-02-23 10:26:00,52.2,38.7,30.24,NNW,338,4.3,4.9,60,0.00,,,0.00,WUHU216HW,2013-02-23 18:26:00,
2013-02-23 10:31:00,52.4,37.5,30.24,North,0,6.0,6.0,57,0.00,,,0.00,WUHU216HW,2013-02-23 18:31:00,
2013-02-23 10:36:00,52.6,36.4,30.24,North,0,2.5,6.0,54,0.00,,,0.00,WUHU216HW,2013-02-23 18:36:00,
2013-02-23 10:41:00,52.7,36.9,30.24,North,0,1.1,6.0,55,0.00,,,0.00,WUHU216HW,2013-02-23 18:41:00,
2013-02-23 10:46:00,53.1,37.3,30.24,SW,225,4.0,4.7,55,0.00,,,0.00,WUHU216HW,2013-02-23 18:46:00,
2013-02-23 10:51:00,53.6,35.9,30.24,NW,315,4.0,4.7,51,0.00,,,0.00,WUHU216HW,2013-02-23 18:51:00,
2013-02-23 10:56:00,54.0,36.7,30.24,WNW,293,2.5,5.1,52,0.00,,,0.00,WUHU216HW,2013-02-23 18:56:00,
2013-02-23 11:01:00,54.2,35.9,30.24,WNW,293,2.7,6.5,50,0.00,,,0.00,WUHU216HW,2013-02-23 19:01:00,
2013-02-23 11:06:00,54.2,35.4,30.24,NNE,23,2.0,6.5,49,0.00,,,0.00,WUHU216HW,2013-02-23 19:06:00,
2013-02-23 11:11:00,54.4,35.6,30.23,NW,315,3.1,5.8,49,0.00,,,0.00,WUHU216HW,2013-02-23 19:11:00,
2013-02-23 11:16:00,54.7,36.5,30.23,NE,45,4.5,4.7,50,0.00,,,0.00,WUHU216HW,2013-02-23 19:16:00,
2013-02-23 11:21:00,55.1,35.6,30.23,North,0,4.0,6.0,48,0.00,,,0.00,WUHU216HW,2013-02-23 19:21:00,
2013-02-23 11:26:00,55.1,35.1,30.24,North,0,4.7,6.0,47,0.00,,,0.00,WUHU216HW,2013-02-23 19:26:00,
2013-02-23 11:31:00,55.1,34.6,30.24,North,0,4.7,8.1,46,0.00,,,0.00,WUHU216HW,2013-02-23 19:31:00,
2013-02-23 11:36:00,55.1,34.6,30.23,SW,225,3.4,8.1,46,0.00,,,0.00,WUHU216HW,2013-02-23 19:36:00,
2013-02-23 11:41:00,55.4,34.3,30.23,NW,315,3.4,6.3,45,0.00,,,0.00,WUHU216HW,2013-02-23 19:41:00,
2013-02-23 11:46:00,55.8,33.5,30.23,NW,315,5.6,6.3,43,0.00,,,0.00,WUHU216HW,2013-02-23 19:46:00,
2013-02-23 11:51:00,56.2,33.8,30.22,NNW,338,2.9,5.6,43,0.00,,,0.00,WUHU216HW,2013-02-23 19:51:00,
2013-02-23 11:56:00,56.2,33.8,30.22,NNW,338,4.0,7.6,43,0.00,,,0.00,WUHU216HW,2013-02-23 19:56:00,
2013-02-23 12:01:00,56.5,34.7,30.22,NNW,338,5.8,7.6,44,0.00,,,0.00,WUHU216HW,2013-02-23 20:01:00,
2013-02-23 12:06:00,56.5,33.6,30.22,NNW,338,4.0,6.0,42,0.00,,,0.00,WUHU216HW,2013-02-23 20:06:00,
2013-02-23 12:11:00,56.9,32.8,30.21,North,0,2.5,6.3,40,0.00,,,0.00,WUHU216HW,2013-02-23 20:11:00,
2013-02-23 12:16:00,57.1,32.9,30.22,NNW,338,2.2,6.3,40,0.00,,,0.00,WUHU216HW,2013-02-23 20:16:00,
2013-02-23 12:21:00,57.4,32.6,30.21,NE,45,2.5,8.7,39,0.00,,,0.00,WUHU216HW,2013-02-23 20:21:00,
2013-02-23 12:26:00,57.4,31.9,30.21,NNW,338,5.1,8.7,38,0.00,,,0.00,WUHU216HW,2013-02-23 20:26:00,
2013-02-23 12:31:00,57.6,32.8,30.20,North,0,2.9,5.6,39,0.00,,,0.00,WUHU216HW,2013-02-23 20:31:00,
2013-02-23 12:36:00,57.6,32.8,30.20,North,0,2.7,6.3,39,0.00,,,0.00,WUHU216HW,2013-02-23 20:36:00,
2013-02-23 12:41:00,57.6,32.8,30.20,WNW,293,5.1,7.2,39,0.00,,,0.00,WUHU216HW,2013-02-23 20:41:00,
2013-02-23 12:46:00,57.8,33.0,30.21,NW,315,5.4,7.2,39,0.00,,,0.00,WUHU216HW,2013-02-23 20:46:00,
2013-02-23 12:51:00,57.6,32.0,30.20,ESE,113,1.3,6.7,38,0.00,,,0.00,WUHU216HW,2013-02-23 20:51:00,
2013-02-23 12:56:00,58.0,33.0,30.20,NNW,338,4.7,6.7,39,0.00,,,0.00,WUHU216HW,2013-02-23 20:56:00,
2013-02-23 13:01:00,58.0,32.4,30.19,NNE,23,3.8,7.6,38,0.00,,,0.00,WUHU216HW,2013-02-23 21:01:00,
2013-02-23 13:06:00,58.0,32.4,30.19,NNE,23,1.3,7.6,38,0.00,,,0.00,WUHU216HW,2013-02-23 21:06:00,
2013-02-23 13:11:00,58.1,31.2,30.19,NW,315,3.4,6.3,36,0.00,,,0.00,WUHU216HW,2013-02-23 21:11:00,
2013-02-23 13:16:00,58.0,32.4,30.19,North,0,1.8,6.3,38,0.00,,,0.00,WUHU216HW,2013-02-23 21:16:00,
2013-02-23 13:21:00,58.1,32.5,30.18,NE,45,1.3,5.6,38,0.00,,,0.00,WUHU216HW,2013-02-23 21:21:00,
2013-02-23 13:26:00,58.7,32.3,30.18,ENE,68,2.5,5.4,37,0.00,,,0.00,WUHU216HW,2013-02-23 21:26:00,
2013-02-23 13:31:00,58.7,33.0,30.18,NNE,23,3.1,5.4,38,0.00,,,0.00,WUHU216HW,2013-02-23 21:31:00,
2013-02-23 13:36:00,58.9,33.2,30.18,North,0,3.4,5.1,38,0.00,,,0.00,WUHU216HW,2013-02-23 21:36:00,
2013-02-23 13:41:00,59.0,32.7,30.18,North,0,3.8,5.8,37,0.00,,,0.00,WUHU216HW,2013-02-23 21:41:00,
2013-02-23 13:46:00,58.9,32.5,30.17,NNE,23,1.8,5.8,37,0.00,,,0.00,WUHU216HW,2013-02-23 21:46:00,
2013-02-23 13:51:00,58.9,32.5,30.17,North,0,8.5,8.5,37,0.00,,,0.00,WUHU216HW,2013-02-23 21:51:00,
2013-02-23 13:56:00,58.9,32.5,30.17,North,0,3.4,8.5,37,0.00,,,0.00,WUHU216HW,2013-02-23 21:56:00,
2013-02-23 14:01:00,58.9,31.8,30.17,NW,315,3.4,6.0,36,0.00,,,0.00,WUHU216HW,2013-02-23 22:01:00,
2013-02-23 14:06:00,58.9,32.5,30.16,North,0,4.9,5.4,37,0.00,,,0.00,WUHU216HW,2013-02-23 22:06:00,
2013-02-23 14:11:00,59.0,33.3,30.16,NNW,338,4.3,5.8,38,0.00,,,0.00,WUHU216HW,2013-02-23 22:11:00,
2013-02-23 14:16:00,59.0,32.0,30.16,NNW,338,2.5,6.3,36,0.00,,,0.00,WUHU216HW,2013-02-23 22:16:00,
2013-02-23 14:21:00,59.0,32.7,30.16,NE,45,4.5,6.3,37,0.00,,,0.00,WUHU216HW,2013-02-23 22:21:00,
2013-02-23 14:26:00,59.2,32.1,30.16,NW,315,3.4,6.9,36,0.00,,,0.00,WUHU216HW,2013-02-23 22:26:00,
2013-02-23 14:31:00,59.2,32.1,30.16,North,0,6.3,6.9,36,0.00,,,0.00,WUHU216HW,2013-02-23 22:31:00,
2013-02-23 14:36:00,59.4,32.2,30.16,NNE,23,4.0,6.9,36,0.00,,,0.00,WUHU216HW,2013-02-23 22:36:00,
2013-02-23 14:41:00,59.4,32.2,30.16,North,0,3.4,6.9,36,0.00,,,0.00,WUHU216HW,2013-02-23 22:41:00,
2013-02-23 14:46:00,59.4,32.2,30.15,NW,315,4.7,6.5,36,0.00,,,0.00,WUHU216HW,2013-02-23 22:46:00,
2013-02-23 14:51:00,59.6,31.0,30.15,NNW,338,2.5,6.5,34,0.00,,,0.00,WUHU216HW,2013-02-23 22:51:00,
2013-02-23 14:56:00,59.4,30.9,30.15,NE,45,4.0,6.3,34,0.00,,,0.00,WUHU216HW,2013-02-23 22:56:00,
2013-02-23 15:01:00,59.4,30.9,30.16,NW,315,1.8,6.9,34,0.00,,,0.00,WUHU216HW,2013-02-23 23:01:00,
2013-02-23 15:06:00,59.6,31.0,30.15,WNW,293,4.5,7.2,34,0.00,,,0.00,WUHU216HW,2013-02-23 23:06:00,
2013-02-23 15:11:00,59.2,30.0,30.15,NW,315,6.0,7.8,33,0.00,,,0.00,WUHU216HW,2013-02-23 23:11:00,
2013-02-23 15:16:00,59.0,29.8,30.15,NNW,338,4.0,7.8,33,0.00,,,0.00,WUHU216HW,2013-02-23 23:16:00,
2013-02-23 15:21:00,59.0,29.2,30.15,North,0,4.9,6.9,32,0.00,,,0.00,WUHU216HW,2013-02-23 23:21:00,
2013-02-23 15:26:00,58.9,29.0,30.15,NW,315,5.8,8.1,32,0.00,,,0.00,WUHU216HW,2013-02-23 23:26:00,
2013-02-23 15:31:00,58.7,29.5,30.15,NW,315,2.9,8.1,33,0.00,,,0.00,WUHU216HW,2013-02-23 23:31:00,
2013-02-23 15:36:00,58.9,29.7,30.15,North,0,3.6,6.9,33,0.00,,,0.00,WUHU216HW,2013-02-23 23:36:00,
2013-02-23 15:41:00,58.7,28.8,30.15,WSW,248,3.8,7.8,32,0.00,,,0.00,WUHU216HW,2013-02-23 23:41:00,
2013-02-23 15:46:00,58.7,29.5,30.15,NNW,338,4.0,7.8,33,0.00,,,0.00,WUHU216HW,2013-02-23 23:46:00,
2013-02-23 15:51:00,58.3,29.2,30.15,NW,315,5.4,6.9,33,0.00,,,0.00,WUHU216HW,2013-02-23 23:51:00,
2013-02-23 15:56:00,58.1,29.0,30.16,WNW,293,8.3,8.3,33,0.00,,,0.00,WUHU216HW,2013-02-23 23:56:00,
2013-02-23 16:01:00,58.0,28.9,30.15,NNE,23,4.0,8.3,33,0.00,,,0.00,WUHU216HW,2013-02-24 00:01:00,
2013-02-23 16:06:00,58.0,28.9,30.15,NNE,23,2.5,8.3,33,0.00,,,0.00,WUHU216HW,2013-02-24 00:06:00,
2013-02-23 16:11:00,57.8,28.7,30.15,North,0,4.7,8.1,33,0.00,,,0.00,WUHU216HW,2013-02-24 00:11:00,
2013-02-23 16:16:00,57.6,28.5,30.15,NNW,338,2.5,6.3,33,0.00,,,0.00,WUHU216HW,2013-02-24 00:16:00,
2013-02-23 16:21:00,57.6,29.3,30.15,NNE,23,2.7,6.3,34,0.00,,,0.00,WUHU216HW,2013-02-24 00:21:00,
2013-02-23 16:26:00,57.6,30.6,30.16,North,0,4.0,5.4,36,0.00,,,0.00,WUHU216HW,2013-02-24 00:26:00,
2013-02-23 16:31:00,57.4,29.1,30.15,North,0,5.4,5.8,34,0.00,,,0.00,WUHU216HW,2013-02-24 00:31:00,
2013-02-23 16:36:00,57.2,28.9,30.16,North,0,2.7,5.8,34,0.00,,,0.00,WUHU216HW,2013-02-24 00:36:00,
2013-02-23 16:41:00,57.2,30.3,30.15,North,0,2.7,5.4,36,0.00,,,0.00,WUHU216HW,2013-02-24 00:41:00,
2013-02-23 16:46:00,57.1,30.2,30.15,North,0,1.8,4.5,36,0.00,,,0.00,WUHU216HW,2013-02-24 00:46:00,
2013-02-23 16:51:00,56.9,30.0,30.15,North,0,2.0,4.5,36,0.00,,,0.00,WUHU216HW,2013-02-24 00:51:00,
2013-02-23 16:56:00,56.5,29.7,30.15,North,0,2.5,4.5,36,0.00,,,0.00,WUHU216HW,2013-02-24 00:56:00,
2013-02-23 17:01:00,56.5,29.7,30.15,North,0,1.8,5.1,36,0.00,,,0.00,WUHU216HW,2013-02-24 01:01:00,
2013-02-23 17:06:00,56.2,29.3,30.15,SSW,203,2.0,5.1,36,0.00,,,0.00,WUHU216HW,2013-02-24 01:06:00,
2013-02-23 17:11:00,56.0,29.2,30.16,North,0,1.6,4.7,36,0.00,,,0.00,WUHU216HW,2013-02-24 01:11:00,
2013-02-23 17:16:00,55.8,29.7,30.16,NNE,23,1.8,4.0,37,0.00,,,0.00,WUHU216HW,2013-02-24 01:16:00,
2013-02-23 17:21:00,55.6,29.5,30.16,North,0,2.2,3.8,37,0.00,,,0.00,WUHU216HW,2013-02-24 01:21:00,
2013-02-23 17:26:00,55.3,30.0,30.16,NNE,23,1.8,2.7,38,0.00,,,0.00,WUHU216HW,2013-02-24 01:26:00,
2013-02-23 17:31:00,55.1,30.5,30.16,NNW,338,0.9,2.2,39,0.00,,,0.00,WUHU216HW,2013-02-24 01:31:00,
2013-02-23 17:36:00,54.5,30.0,30.16,NNW,338,0.4,1.8,39,0.00,,,0.00,WUHU216HW,2013-02-24 01:36:00,
2013-02-23 17:41:00,54.2,30.3,30.16,NNW,338,0.4,1.8,40,0.00,,,0.00,WUHU216HW,2013-02-24 01:41:00,
2013-02-23 17:46:00,53.6,29.9,30.16,NNW,338,0.7,1.8,40,0.00,,,0.00,WUHU216HW,2013-02-24 01:46:00,
2013-02-23 17:51:00,53.3,30.2,30.16,NNE,23,0.0,1.3,41,0.00,,,0.00,WUHU216HW,2013-02-24 01:51:00,
2013-02-23 17:56:00,52.7,29.6,30.16,North,0,0.0,1.1,41,0.00,,,0.00,WUHU216HW,2013-02-24 01:56:00,
2013-02-23 18:01:00,52.4,29.9,30.17,West,270,0.0,1.8,42,0.00,,,0.00,WUHU216HW,2013-02-24 02:01:00,
2013-02-23 18:06:00,51.8,30.0,30.17,North,0,0.4,1.8,43,0.00,,,0.00,WUHU216HW,2013-02-24 02:06:00,
2013-02-23 18:11:00,51.5,29.1,30.17,North,0,0.0,1.3,42,0.00,,,0.00,WUHU216HW,2013-02-24 02:11:00,
2013-02-23 18:16:00,51.1,29.3,30.18,North,0,1.1,1.8,43,0.00,,,0.00,WUHU216HW,2013-02-24 02:16:00,
2013-02-23 18:21:00,50.8,29.0,30.18,North,0,1.6,1.8,43,0.00,,,0.00,WUHU216HW,2013-02-24 02:21:00,
2013-02-23 18:26:00,50.4,29.2,30.18,North,0,0.9,2.2,44,0.00,,,0.00,WUHU216HW,2013-02-24 02:26:00,
2013-02-23 18:31:00,50.0,28.9,30.18,North,0,1.1,2.2,44,0.00,,,0.00,WUHU216HW,2013-02-24 02:31:00,
2013-02-23 18:36:00,49.9,29.3,30.18,North,0,2.0,2.2,45,0.00,,,0.00,WUHU216HW,2013-02-24 02:36:00,
2013-02-23 18:41:00,49.7,29.1,30.18,North,0,1.8,2.2,45,0.00,,,0.00,WUHU216HW,2013-02-24 02:41:00,
2013-02-23 18:46:00,49.7,29.1,30.18,North,0,2.0,2.5,45,0.00,,,0.00,WUHU216HW,2013-02-24 02:46:00,
2013-02-23 18:51:00,49.5,29.4,30.17,NW,315,1.3,4.0,46,0.00,,,0.00,WUHU216HW,2013-02-24 02:51:00,
2013-02-23 18:56:00,49.3,29.4,30.17,North,0,2.0,4.5,46,0.00,,,0.00,WUHU216HW,2013-02-24 02:56:00,
2013-02-23 19:01:00,49.3,29.4,30.17,NNE,23,1.6,4.5,46,0.00,,,0.00,WUHU216HW,2013-02-24 03:01:00,
2013-02-23 19:06:00,49.3,29.4,30.17,NNW,338,2.5,4.7,46,0.00,,,0.00,WUHU216HW,2013-02-24 03:06:00,
2013-02-23 19:11:00,49.3,29.4,30.17,North,0,1.1,4.7,46,0.00,,,0.00,WUHU216HW,2013-02-24 03:11:00,
2013-02-23 19:16:00,49.3,29.4,30.17,NE,45,3.8,4.7,46,0.00,,,0.00,WUHU216HW,2013-02-24 03:16:00,
2013-02-23 19:21:00,49.3,29.4,30.17,NNW,338,3.6,4.7,46,0.00,,,0.00,WUHU216HW,2013-02-24 03:21:00,
2013-02-23 19:26:00,49.3,29.4,30.17,West,270,1.3,4.7,46,0.00,,,0.00,WUHU216HW,2013-02-24 03:26:00,
2013-02-23 19:31:00,49.3,29.4,30.17,ENE,68,1.6,4.0,46,0.00,,,0.00,WUHU216HW,2013-02-24 03:31:00,
2013-02-23 19:36:00,49.3,29.4,30.18,North,0,2.5,4.0,46,0.00,,,0.00,WUHU216HW,2013-02-24 03:36:00,
2013-02-23 19:41:00,49.3,29.4,30.18,NNW,338,1.1,4.3,46,0.00,,,0.00,WUHU216HW,2013-02-24 03:41:00,
2013-02-23 19:46:00,49.1,29.2,30.18,NNW,338,1.3,4.3,46,0.00,,,0.00,WUHU216HW,2013-02-24 03:46:00,
2013-02-23 19:51:00,49.0,29.0,30.18,NNW,338,0.7,3.8,46,0.00,,,0.00,WUHU216HW,2013-02-24 03:51:00,
2013-02-23 19:56:00,48.6,29.2,30.18,North,0,1.1,3.1,47,0.00,,,0.00,WUHU216HW,2013-02-24 03:56:00,
2013-02-23 20:01:00,48.4,29.0,30.18,North,0,3.4,3.6,47,0.00,,,0.00,WUHU216HW,2013-02-24 04:01:00,
2013-02-23 20:06:00,48.2,29.3,30.18,North,0,2.7,3.6,48,0.00,,,0.00,WUHU216HW,2013-02-24 04:06:00,
2013-02-23 20:11:00,47.9,29.0,30.19,SSW,203,0.2,3.6,48,0.00,,,0.00,WUHU216HW,2013-02-24 04:11:00,
2013-02-23 20:16:00,47.9,29.5,30.18,North,0,2.2,3.4,49,0.00,,,0.00,WUHU216HW,2013-02-24 04:16:00,
2013-02-23 20:21:00,47.5,29.3,30.18,NNW,338,0.0,3.4,49,0.00,,,0.00,WUHU216HW,2013-02-24 04:21:00,
2013-02-23 20:26:00,47.2,29.4,30.19,North,0,1.1,3.4,50,0.00,,,0.00,WUHU216HW,2013-02-24 04:26:00,
2013-02-23 20:31:00,46.8,29.6,30.18,WNW,293,1.8,3.4,51,0.00,,,0.00,WUHU216HW,2013-02-24 04:31:00,
2013-02-23 20:36:00,46.4,29.3,30.19,NW,315,1.8,2.9,51,0.00,,,0.00,WUHU216HW,2013-02-24 04:36:00,
2013-02-23 20:41:00,46.1,29.3,30.19,North,0,1.8,2.9,52,0.00,,,0.00,WUHU216HW,2013-02-24 04:41:00,
2013-02-23 20:46:00,45.7,29.5,30.19,NNW,338,1.1,2.5,53,0.00,,,0.00,WUHU216HW,2013-02-24 04:46:00,
2013-02-23 20:51:00,45.4,29.2,30.19,NNE,23,1.1,1.8,53,0.00,,,0.00,WUHU216HW,2013-02-24 04:51:00,
2013-02-23 20:56:00,45.0,29.4,30.19,NNW,338,0.7,1.8,54,0.00,,,0.00,WUHU216HW,2013-02-24 04:56:00,
2013-02-23 21:00:00,44.6,29.4,30.19,NNW,338,0.9,2.5,55,0.00,,,0.00,WUHU216HW,2013-02-24 05:00:00,
2013-02-23 21:05:00,44.3,28.6,30.19,North,0,0.7,2.5,54,0.00,,,0.00,WUHU216HW,2013-02-24 05:05:00,
2013-02-23 21:10:00,43.7,28.2,30.19,NNE,23,0.7,1.8,54,0.00,,,0.00,WUHU216HW,2013-02-24 05:10:00,
2013-02-23 21:15:00,43.6,28.5,30.19,NNW,338,0.4,1.8,55,0.00,,,0.00,WUHU216HW,2013-02-24 05:15:00,
2013-02-23 21:20:00,43.4,28.3,30.19,NNW,338,0.4,1.8,55,0.00,,,0.00,WUHU216HW,2013-02-24 05:20:00,
2013-02-23 21:25:00,43.6,28.0,30.19,North,0,0.2,2.0,54,0.00,,,0.00,WUHU216HW,2013-02-24 05:25:00,
2013-02-23 21:30:00,43.6,28.0,30.19,NNW,338,1.1,3.1,54,0.00,,,0.00,WUHU216HW,2013-02-24 05:30:00,
2013-02-23 21:35:00,43.6,28.0,30.19,North,0,0.4,3.1,54,0.00,,,0.00,WUHU216HW,2013-02-24 05:35:00,
2013-02-23 21:40:00,43.6,27.6,30.19,North,0,0.0,1.6,53,0.00,,,0.00,WUHU216HW,2013-02-24 05:40:00,
2013-02-23 21:45:00,43.4,27.4,30.19,NNW,338,1.8,1.8,53,0.00,,,0.00,WUHU216HW,2013-02-24 05:45:00,
2013-02-23 21:50:00,43.4,27.4,30.19,North,0,0.2,1.8,53,0.00,,,0.00,WUHU216HW,2013-02-24 05:50:00,
2013-02-23 21:55:00,43.0,27.5,30.19,NNW,338,0.0,1.8,54,0.00,,,0.00,WUHU216HW,2013-02-24 05:55:00,
2013-02-23 22:00:00,42.7,27.1,30.20,NNE,23,1.1,2.5,54,0.00,,,0.00,WUHU216HW,2013-02-24 06:00:00,
2013-02-23 22:05:00,42.5,26.9,30.20,North,0,0.2,2.5,54,0.00,,,0.00,WUHU216HW,2013-02-24 06:05:00,
2013-02-23 22:10:00,41.9,26.9,30.20,North,0,0.9,1.1,55,0.00,,,0.00,WUHU216HW,2013-02-24 06:10:00,
2013-02-23 22:15:00,41.6,27.5,30.20,North,0,1.1,1.8,57,0.00,,,0.00,WUHU216HW,2013-02-24 06:15:00,
2013-02-23 22:20:00,41.2,27.1,30.20,NNE,23,0.4,1.8,57,0.00,,,0.00,WUHU216HW,2013-02-24 06:20:00,
2013-02-23 22:25:00,41.0,26.9,30.20,NE,45,0.4,1.8,57,0.00,,,0.00,WUHU216HW,2013-02-24 06:25:00,
2013-02-23 22:30:00,40.7,27.0,30.20,NW,315,1.8,1.8,58,0.00,,,0.00,WUHU216HW,2013-02-24 06:30:00,
2013-02-23 22:35:00,40.7,27.5,30.20,WNW,293,0.4,1.8,59,0.00,,,0.00,WUHU216HW,2013-02-24 06:35:00,
2013-02-23 22:40:00,40.5,27.7,30.20,North,0,0.2,1.8,60,0.00,,,0.00,WUHU216HW,2013-02-24 06:40:00,
2013-02-23 22:45:00,40.3,27.5,30.20,North,0,1.1,1.3,60,0.00,,,0.00,WUHU216HW,2013-02-24 06:45:00,
2013-02-23 22:50:00,40.1,27.4,30.20,NNE,23,0.2,1.6,60,0.00,,,0.00,WUHU216HW,2013-02-24 06:50:00,
2013-02-23 22:55:00,40.0,27.5,30.20,North,0,0.2,1.6,61,0.00,,,0.00,WUHU216HW,2013-02-24 06:55:00,
2013-02-23 23:00:00,39.8,27.4,30.20,NNW,338,0.4,1.6,61,0.00,,,0.00,WUHU216HW,2013-02-24 07:00:00,
2013-02-23 23:05:00,39.6,27.5,30.20,North,0,0.4,1.8,62,0.00,,,0.00,WUHU216HW,2013-02-24 07:05:00,
2013-02-23 23:10:00,39.6,27.5,30.20,North,0,1.6,2.9,62,0.00,,,0.00,WUHU216HW,2013-02-24 07:10:00,
2013-02-23 23:15:00,39.4,27.8,30.19,NW,315,2.0,2.9,63,0.00,,,0.00,WUHU216HW,2013-02-24 07:15:00,
2013-02-23 23:20:00,39.4,27.8,30.19,North,0,1.1,2.5,63,0.00,,,0.00,WUHU216HW,2013-02-24 07:20:00,
2013-02-23 23:25:00,39.2,27.6,30.19,North,0,1.3,2.5,63,0.00,,,0.00,WUHU216HW,2013-02-24 07:25:00,
2013-02-23 23:30:00,39.2,27.6,30.19,NW,315,0.7,2.9,63,0.00,,,0.00,WUHU216HW,2013-02-24 07:30:00,
2013-02-23 23:35:00,39.1,27.5,30.19,NNW,338,0.7,2.9,63,0.00,,,0.00,WUHU216HW,2013-02-24 07:35:00,
2013-02-23 23:40:00,39.2,27.6,30.19,NNE,23,1.1,2.7,63,0.00,,,0.00,WUHU216HW,2013-02-24 07:40:00,
2013-02-23 23:45:00,39.4,27.8,30.20,North,0,4.9,4.9,63,0.00,,,0.00,WUHU216HW,2013-02-24 07:45:00,
2013-02-23 23:50:00,39.8,27.7,30.20,North,0,2.5,4.9,62,0.00,,,0.00,WUHU216HW,2013-02-24 07:50:00,
2013-02-23 23:55:00,39.6,27.5,30.20,NNW,338,0.9,4.9,62,0.00,,,0.00,WUHU216HW,2013-02-24 07:55:00,